| time (UTC) | temp C | wind direction | speed KPH | gust KPH | rain 1hr cm | rain 24hr cm | rain mn cm | humidity % | barometer mb |
| 20260507193824 | 33 | 173 | 0.0 | 4.8 | 0.00 | 0.00 | 0.00 | 12 | 1011.9 |
| 20260507192838 | 32 | 171 | 3.2 | 11.3 | 0.00 | 0.00 | 0.00 | 11 | 1012.1 |
| 20260507191813 | 32 | 85 | 4.8 | 11.3 | 0.00 | 0.00 | 0.00 | 12 | 1012.3 |
| 20260507190826 | 32 | 135 | 6.4 | 9.7 | 0.00 | 0.00 | 0.00 | 12 | 1012.4 |
| 20260507185818 | 31 | 87 | 4.8 | 12.9 | 0.00 | 0.00 | 0.00 | 12 | 1012.5 |
| 20260507184852 | 31 | 71 | 1.6 | 8.0 | 0.00 | 0.00 | 0.00 | 12 | 1012.7 |
| 20260507183843 | 31 | 131 | 1.6 | 9.7 | 0.00 | 0.00 | 0.00 | 14 | 1012.8 |
| 20260507182837 | 31 | 145 | 3.2 | 12.9 | 0.00 | 0.00 | 0.00 | 13 | 1012.9 |
| 20260507181812 | 31 | 41 | 9.7 | 16.1 | 0.00 | 0.00 | 0.00 | 14 | 1013.0 |
| 20260507180826 | 30 | 312 | 0.0 | 11.3 | 0.00 | 0.00 | 0.00 | 16 | 1013.2 |
| 20260507175819 | 30 | 164 | 1.6 | 6.4 | 0.00 | 0.00 | 0.00 | 17 | 1013.3 |
| 20260507174852 | 30 | 137 | 0.0 | 4.8 | 0.00 | 0.00 | 0.00 | 17 | 1013.4 |
| 20260507173824 | 30 | 86 | 3.2 | 9.7 | 0.00 | 0.00 | 0.00 | 17 | 1013.6 |
| 20260507172818 | 30 | 118 | 1.6 | 4.8 | 0.00 | 0.00 | 0.00 | 19 | 1013.7 |
| 20260507171812 | 29 | 106 | 1.6 | 8.0 | 0.00 | 0.00 | 0.00 | 19 | 1013.8 |
| 20260507170826 | 28 | 88 | 1.6 | 6.4 | 0.00 | 0.00 | 0.00 | 19 | 1013.8 |
| 20260507165818 | 28 | 62 | 1.6 | 6.4 | 0.00 | 0.00 | 0.00 | 21 | 1013.9 |
| 20260507164832 | 28 | 102 | 0.0 | 4.8 | 0.00 | 0.00 | 0.00 | 22 | 1014.0 |
| 20260507163826 | 27 | 156 | 3.2 | 6.4 | 0.00 | 0.00 | 0.00 | 22 | 1014.0 |
| 20260507162822 | 27 | 107 | 3.2 | 6.4 | 0.00 | 0.00 | 0.00 | 22 | 1014.1 |
| 20260507161816 | 27 | 33 | 1.6 | 4.8 | 0.00 | 0.00 | 0.00 | 23 | 1014.1 |
| 20260507160831 | 26 | 266 | 1.6 | 3.2 | 0.00 | 0.00 | 0.00 | 26 | 1014.2 |
| 20260507155824 | 26 | 187 | 0.0 | 4.8 | 0.00 | 0.00 | 0.00 | 26 | 1014.3 |
| 20260507154837 | 25 | 170 | 1.6 | 4.8 | 0.00 | 0.00 | 0.00 | 27 | 1014.4 |
| 20260507153853 | 25 | 164 | 0.0 | 3.2 | 0.00 | 0.00 | 0.00 | 30 | 1014.5 |
| 20260507152826 | 25 | 106 | 1.6 | 9.7 | 0.00 | 0.00 | 0.00 | 31 | 1014.4 |
| 20260507151820 | 24 | 160 | 1.6 | 6.4 | 0.00 | 0.00 | 0.00 | 32 | 1014.4 |
| 20260507150813 | 23 | 93 | 3.2 | 12.9 | 0.00 | 0.00 | 0.00 | 33 | 1014.4 |
| 20260507145827 | 23 | 62 | 3.2 | 11.3 | 0.00 | 0.00 | 0.00 | 31 | 1014.4 |
| 20260507144822 | 23 | 81 | 3.2 | 9.7 | 0.00 | 0.00 | 0.00 | 32 | 1014.3 |
| 20260507143853 | 23 | 44 | 4.8 | 9.7 | 0.00 | 0.00 | 0.00 | 31 | 1014.3 |
| 20260507142827 | 22 | 26 | 3.2 | 8.0 | 0.00 | 0.00 | 0.00 | 31 | 1014.3 |
| 20260507141818 | 22 | 39 | 1.6 | 4.8 | 0.00 | 0.00 | 0.00 | 32 | 1014.2 |
| 20260507140831 | 22 | 91 | 1.6 | 3.2 | 0.00 | 0.00 | 0.00 | 33 | 1014.2 |
| 20260507135825 | 22 | 89 | 1.6 | 4.8 | 0.00 | 0.00 | 0.00 | 33 | 1014.2 |
| 20260507134821 | 21 | 64 | 0.0 | 1.6 | 0.00 | 0.00 | 0.00 | 34 | 1014.1 |
| 20260507133814 | 21 | 83 | 0.0 | 1.6 | 0.00 | 0.00 | 0.00 | 33 | 1014.0 |
| 20260507132826 | 21 | 91 | 1.6 | 9.7 | 0.00 | 0.00 | 0.00 | 33 | 1014.0 |
| 20260507131821 | 21 | 21 | 4.8 | 14.5 | 0.00 | 0.00 | 0.00 | 31 | 1013.8 |
| 20260507130818 | 20 | 16 | 6.4 | 17.7 | 0.00 | 0.00 | 0.00 | 33 | 1013.5 |
| 20260507125813 | 20 | 358 | 4.8 | 14.5 | 0.00 | 0.00 | 0.00 | 33 | 1013.7 |
| 20260507124826 | 20 | 356 | 3.2 | 9.7 | 0.00 | 0.00 | 0.00 | 34 | 1013.7 |
| 20260507123819 | 20 | 4 | 4.8 | 8.0 | 0.00 | 0.00 | 0.00 | 33 | 1013.7 |
| 20260507122852 | 20 | 359 | 3.2 | 9.7 | 0.00 | 0.00 | 0.00 | 33 | 1013.6 |
| 20260507121824 | 20 | 336 | 3.2 | 6.4 | 0.00 | 0.00 | 0.00 | 33 | 1013.6 |
| 20260507120821 | 20 | 71 | 3.2 | 8.0 | 0.00 | 0.00 | 0.00 | 32 | 1013.7 |
| 20260507115815 | 20 | 357 | 6.4 | 12.9 | 0.00 | 0.00 | 0.00 | 32 | 1013.7 |
| 20260507114825 | 20 | 22 | 4.8 | 11.3 | 0.00 | 0.00 | 0.00 | 32 | 1013.7 |
| 20260507113818 | 20 | 357 | 1.6 | 8.0 | 0.00 | 0.00 | 0.00 | 32 | 1013.7 |
| 20260507112832 | 20 | 2 | 4.8 | 9.7 | 0.00 | 0.00 | 0.00 | 32 | 1013.5 |
| 20260507111829 | 20 | 23 | 1.6 | 6.4 | 0.00 | 0.00 | 0.00 | 32 | 1013.5 |
| 20260507110824 | 20 | 27 | 3.2 | 8.0 | 0.00 | 0.00 | 0.00 | 33 | 1013.6 |
| 20260507105817 | 20 | 5 | 1.6 | 4.8 | 0.00 | 0.00 | 0.00 | 34 | 1013.7 |
| 20260507104829 | 20 | 4 | 3.2 | 9.7 | 0.00 | 0.00 | 0.00 | 34 | 1013.8 |
| 20260507103823 | 20 | 351 | 3.2 | 6.4 | 0.00 | 0.00 | 0.00 | 34 | 1013.9 |
| 20260507102818 | 20 | 358 | 0.0 | 3.2 | 0.00 | 0.00 | 0.00 | 35 | 1013.9 |
| 20260507101852 | 20 | 357 | 1.6 | 4.8 | 0.00 | 0.00 | 0.00 | 34 | 1014.0 |
| 20260507100825 | 19 | 2 | 0.0 | 1.6 | 0.00 | 0.00 | 0.00 | 35 | 1014.1 |
| 20260507095817 | 18 | 1 | 0.0 | 1.6 | 0.00 | 0.00 | 0.00 | 36 | 1014.1 |
| 20260507094830 | 19 | 1 | 0.0 | 1.6 | 0.00 | 0.00 | 0.00 | 36 | 1014.3 |
| 20260507093826 | 20 | 3 | 0.0 | 0.0 | 0.00 | 0.00 | 0.00 | 35 | 1014.3 |
| 20260507092819 | 20 | 3 | 0.0 | 1.6 | 0.00 | 0.00 | 0.00 | 33 | 1014.3 |
| 20260507091815 | 21 | 5 | 0.0 | 4.8 | 0.00 | 0.00 | 0.00 | 33 | 1014.3 |
| 20260507090829 | 21 | 6 | 1.6 | 4.8 | 0.00 | 0.00 | 0.00 | 32 | 1014.3 |
| 20260507085843 | 21 | 351 | 3.2 | 9.7 | 0.00 | 0.00 | 0.00 | 32 | 1014.3 |
| 20260507084821 | 21 | 360 | 3.2 | 8.0 | 0.00 | 0.00 | 0.00 | 32 | 1014.4 |
| 20260507083835 | 21 | 16 | 3.2 | 6.4 | 0.00 | 0.00 | 0.00 | 32 | 1014.5 |
| 20260507082829 | 21 | 360 | 1.6 | 8.0 | 0.00 | 0.00 | 0.00 | 32 | 1014.5 |
| 20260507081822 | 21 | 7 | 1.6 | 4.8 | 0.00 | 0.00 | 0.00 | 32 | 1014.5 |
| 20260507080814 | 21 | 356 | 0.0 | 4.8 | 0.00 | 0.00 | 0.00 | 33 | 1014.6 |
| 20260507075832 | 21 | 343 | 0.0 | 1.6 | 0.00 | 0.00 | 0.00 | 34 | 1014.7 |
| 20260507074827 | 20 | 343 | 0.0 | 0.0 | 0.00 | 0.00 | 0.00 | 36 | 1014.7 |
| 20260507073819 | 20 | 343 | 0.0 | 0.0 | 0.00 | 0.00 | 0.00 | 36 | 1014.7 |
| 20260507072834 | 21 | 343 | 0.0 | 0.0 | 0.00 | 0.00 | 0.00 | 34 | 1014.7 |
| 20260507071828 | 21 | 343 | 0.0 | 0.0 | 0.00 | 0.00 | 0.00 | 33 | 1014.6 |
| 20260507070840 | 21 | 342 | 0.0 | 0.0 | 0.00 | 0.00 | 0.00 | 32 | 1014.6 |
| 20260507065816 | 22 | 358 | 0.0 | 3.2 | 0.00 | 0.00 | 0.00 | 31 | 1014.6 |
| 20260507064848 | 22 | 1 | 1.6 | 3.2 | 0.00 | 0.00 | 0.00 | 31 | 1014.5 |
| 20260507063819 | 22 | 287 | 0.0 | 1.6 | 0.00 | 0.00 | 0.00 | 30 | 1014.5 |
| 20260507062813 | 22 | 287 | 0.0 | 0.0 | 0.00 | 0.00 | 0.00 | 29 | 1014.4 |
| 20260507061827 | 22 | 287 | 0.0 | 0.0 | 0.00 | 0.00 | 0.00 | 29 | 1014.5 |
| 20260507060824 | 23 | 287 | 0.0 | 1.6 | 0.00 | 0.00 | 0.00 | 29 | 1014.5 |
| 20260507055815 | 23 | 287 | 0.0 | 1.6 | 0.00 | 0.00 | 0.00 | 28 | 1014.5 |
| 20260507054847 | 22 | 287 | 0.0 | 1.6 | 0.00 | 0.00 | 0.00 | 29 | 1014.4 |
| 20260507053840 | 22 | 208 | 0.0 | 0.0 | 0.00 | 0.00 | 0.00 | 31 | 1014.5 |
| 20260507052832 | 22 | 208 | 0.0 | 0.0 | 0.00 | 0.00 | 0.00 | 30 | 1014.5 |
| 20260507051824 | 22 | 208 | 0.0 | 0.0 | 0.00 | 0.00 | 0.00 | 30 | 1014.6 |
| 20260507050824 | 23 | 208 | 0.0 | 0.0 | 0.00 | 0.00 | 0.00 | 30 | 1014.5 |
| 20260507045818 | 23 | 208 | 0.0 | 0.0 | 0.00 | 0.00 | 0.00 | 29 | 1014.3 |
| 20260507044830 | 22 | 208 | 0.0 | 0.0 | 0.00 | 0.00 | 0.00 | 31 | 1014.3 |
| 20260507043824 | 22 | 208 | 0.0 | 0.0 | 0.00 | 0.00 | 0.00 | 30 | 1014.2 |
| 20260507042816 | 23 | 209 | 0.0 | 0.0 | 0.00 | 0.00 | 0.00 | 29 | 1014.2 |
| 20260507041813 | 23 | 209 | 0.0 | 0.0 | 0.00 | 0.00 | 0.00 | 28 | 1014.1 |
| 20260507040825 | 23 | 208 | 0.0 | 0.0 | 0.00 | 0.00 | 0.00 | 27 | 1014.0 |
| 20260507035819 | 24 | 209 | 0.0 | 0.0 | 0.00 | 0.00 | 0.00 | 26 | 1013.8 |
| 20260507034852 | 25 | 208 | 0.0 | 0.0 | 0.00 | 0.00 | 0.00 | 25 | 1013.7 |
| 20260507033825 | 25 | 208 | 0.0 | 1.6 | 0.00 | 0.00 | 0.00 | 25 | 1013.6 |
| 20260507032823 | 25 | 206 | 0.0 | 0.0 | 0.00 | 0.00 | 0.00 | 24 | 1013.5 |
| 20260507031819 | 25 | 206 | 0.0 | 1.6 | 0.00 | 0.00 | 0.00 | 24 | 1013.4 |
| 20260507030812 | 26 | 192 | 0.0 | 3.2 | 0.00 | 0.00 | 0.00 | 23 | 1013.2 |
| 20260507025825 | 26 | 204 | 1.6 | 3.2 | 0.00 | 0.00 | 0.00 | 23 | 1013.1 |
| 20260507024837 | 26 | 214 | 1.6 | 3.2 | 0.00 | 0.00 | 0.00 | 23 | 1013.1 |
| 20260507023812 | 26 | 221 | 0.0 | 3.2 | 0.00 | 0.00 | 0.00 | 23 | 1012.9 |
| 20260507022825 | 26 | 225 | 1.6 | 1.6 | 0.00 | 0.00 | 0.00 | 22 | 1012.8 |
| 20260507021818 | 27 | 221 | 1.6 | 3.2 | 0.00 | 0.00 | 0.00 | 22 | 1012.7 |
| 20260507020831 | 27 | 231 | 0.0 | 4.8 | 0.00 | 0.00 | 0.00 | 22 | 1012.6 |
| 20260507015844 | 27 | 215 | 0.0 | 1.6 | 0.00 | 0.00 | 0.00 | 22 | 1012.6 |
| 20260507014820 | 27 | 223 | 3.2 | 4.8 | 0.00 | 0.00 | 0.00 | 21 | 1012.5 |
| 20260507013812 | 27 | 232 | 3.2 | 11.3 | 0.00 | 0.00 | 0.00 | 21 | 1012.5 |
| 20260507012826 | 28 | 231 | 3.2 | 6.4 | 0.00 | 0.00 | 0.00 | 20 | 1012.6 |
| 20260507011818 | 28 | 229 | 3.2 | 9.7 | 0.00 | 0.00 | 0.00 | 20 | 1012.5 |
| 20260507010831 | 29 | 229 | 0.0 | 6.4 | 0.00 | 0.00 | 0.00 | 20 | 1012.6 |
| 20260507005827 | 29 | 284 | 1.6 | 9.7 | 0.00 | 0.00 | 0.00 | 20 | 1012.5 |
| 20260507004819 | 28 | 227 | 4.8 | 11.3 | 0.00 | 0.00 | 0.00 | 20 | 1012.5 |
| 20260507003831 | 29 | 344 | 0.0 | 4.8 | 0.00 | 0.00 | 0.00 | 20 | 1012.5 |
| 20260507002823 | 28 | 356 | 1.6 | 6.4 | 0.00 | 0.00 | 0.00 | 21 | 1012.4 |
| 20260507001838 | 28 | 203 | 4.8 | 14.5 | 0.00 | 0.00 | 0.00 | 21 | 1012.4 |
| 20260507000850 | 29 | 274 | 0.0 | 8.0 | 0.00 | 0.00 | 0.00 | 21 | 1012.4 |
| 20260506235847 | 29 | 291 | 4.8 | 12.9 | 0.00 | 0.00 | 0.00 | 20 | 1012.3 |
| 20260506234820 | 28 | 214 | 3.2 | 8.0 | 0.00 | 0.00 | 0.00 | 21 | 1012.4 |
| 20260506233812 | 28 | 214 | 4.8 | 12.9 | 0.00 | 0.00 | 0.00 | 21 | 1012.6 |
| 20260506232824 | 29 | 224 | 3.2 | 9.7 | 0.00 | 0.00 | 0.00 | 20 | 1012.6 |
| 20260506231817 | 28 | 226 | 1.6 | 9.7 | 0.00 | 0.00 | 0.00 | 21 | 1012.7 |
| 20260506230814 | 29 | 218 | 3.2 | 12.9 | 0.00 | 0.00 | 0.00 | 21 | 1012.9 |
| 20260506225827 | 29 | 142 | 1.6 | 11.3 | 0.00 | 0.00 | 0.00 | 21 | 1012.9 |
| 20260506224819 | 30 | 227 | 1.6 | 11.3 | 0.00 | 0.00 | 0.00 | 20 | 1013.1 |
| 20260506223852 | 28 | 236 | 1.6 | 9.7 | 0.00 | 0.00 | 0.00 | 23 | 1013.2 |
| 20260506222824 | 28 | 27 | 3.2 | 12.9 | 0.00 | 0.00 | 0.00 | 21 | 1013.3 |
| 20260506221818 | 28 | 172 | 4.8 | 9.7 | 0.00 | 0.00 | 0.00 | 21 | 1013.4 |
| 20260506220834 | 28 | 315 | 4.8 | 9.7 | 0.00 | 0.00 | 0.00 | 22 | 1013.5 |
| 20260506215829 | 28 | 119 | 3.2 | 9.7 | 0.00 | 0.00 | 0.00 | 21 | 1013.7 |
| 20260506214822 | 28 | 279 | 3.2 | 6.4 | 0.00 | 0.00 | 0.00 | 21 | 1013.9 |
| 20260506213815 | 28 | 331 | 3.2 | 8.0 | 0.00 | 0.00 | 0.00 | 22 | 1014.0 |
| 20260506212827 | 27 | 189 | 3.2 | 12.9 | 0.00 | 0.00 | 0.00 | 23 | 1014.1 |
| 20260506211824 | 27 | 313 | 6.4 | 20.9 | 0.00 | 0.00 | 0.00 | 22 | 1014.4 |
| 20260506210816 | 27 | 241 | 4.8 | 12.9 | 0.00 | 0.00 | 0.00 | 22 | 1014.4 |
| 20260506205830 | 27 | 232 | 3.2 | 14.5 | 0.00 | 0.00 | 0.00 | 24 | 1014.6 |
| 20260506204822 | 27 | 25 | 6.4 | 16.1 | 0.00 | 0.00 | 0.00 | 23 | 1014.8 |
| 20260506203834 | 28 | 345 | 4.8 | 16.1 | 0.00 | 0.00 | 0.00 | 23 | 1015.0 |
| 20260506202825 | 27 | 198 | 3.2 | 8.0 | 0.00 | 0.00 | 0.00 | 23 | 1015.0 |
| 20260506201820 | 27 | 270 | 4.8 | 14.5 | 0.00 | 0.00 | 0.00 | 23 | 1015.1 |
| 20260506200813 | 26 | 234 | 1.6 | 8.0 | 0.00 | 0.00 | 0.00 | 25 | 1015.1 |
| 20260506195825 | 26 | 245 | 4.8 | 14.5 | 0.00 | 0.00 | 0.00 | 24 | 1015.3 |
| 20260506194818 | 27 | 252 | 8.0 | 14.5 | 0.00 | 0.00 | 0.00 | 25 | 1015.4 |